Simultaneous Nadir Overpasses (SNOs) Predictions

Prediction of SNOs between METOP-B and NOAA-19 Satellite Orbit:

Table of predicted SNOs for the next 14.0 days since TLE Epoch: 5/1/2015
Index Date (METOP-B) Time (METOP-B) Lat,Lon (METOP-B) SZA (METOP-B ) Date (NOAA-19) Time (NOAA-19) Lat,Lon (NOAA-19) SZA (NOAA-19 ) Distance(km) Time Diff (sec)
1 05/11/2015 06:17:42 74.85, 82.78 56.97 05/11/2015 06:16:29 74.82, 82.79 56.94 3.75 73
2 05/11/2015 07:08:25 -74.80,-110.02 123.09 05/11/2015 07:07:31 -74.80,-109.94 123.09 2.37 54
3 05/11/2015 07:59:05 74.78, 57.25 56.88 05/11/2015 07:58:31 74.78, 57.38 56.88 3.66 34
4 05/11/2015 08:49:47 -74.78,-135.42 123.13 05/11/2015 08:49:33 -74.77,-135.35 123.14 2.33 14
5 05/11/2015 09:40:27 74.76, 31.85 56.84 05/11/2015 09:40:33 74.75, 31.97 56.83 3.58 6
6
